Time,TemperatureF,DewpointF,PressureIn,WindDirection,WindDirectionDegrees,WindSpeedMPH,WindSpeedGustMPH,Humidity,HourlyPrecipIn,Conditions,Clouds,dailyrainin,SoftwareType,DateUTC
2013-06-21 00:01:00,46.0,37.2,24.86,SE,130,0.0,0.0,71,0.00,,---,0.00,VWS V14.01,2013-06-21 06:01:00,
2013-06-21 00:06:00,46.0,36.8,24.86,NE,47,0.0,0.0,70,0.00,,---,0.00,VWS V14.01,2013-06-21 06:06:00,
2013-06-21 00:11:00,45.9,36.3,24.86,NE,47,0.0,0.0,69,0.00,,---,0.00,VWS V14.01,2013-06-21 06:11:00,
2013-06-21 00:16:00,45.7,36.1,24.86,NE,45,0.0,0.0,69,0.00,,---,0.00,VWS V14.01,2013-06-21 06:16:00,
2013-06-21 00:21:00,45.7,36.5,24.86,NE,45,0.0,0.0,70,0.00,,---,0.00,VWS V14.01,2013-06-21 06:21:00,
2013-06-21 00:26:00,45.7,36.5,24.83,NE,45,0.0,0.0,70,0.00,,---,0.00,VWS V14.01,2013-06-21 06:26:00,
2013-06-21 00:31:00,45.7,36.5,24.83,WNW,292,3.1,3.6,70,0.00,,---,0.00,VWS V14.01,2013-06-21 06:31:00,
2013-06-21 00:36:00,45.5,35.9,24.83,WNW,283,2.2,2.2,69,0.00,,---,0.00,VWS V14.01,2013-06-21 06:36:00,
2013-06-21 00:41:00,45.3,35.8,24.86,West,274,0.0,0.0,69,0.00,,---,0.00,VWS V14.01,2013-06-21 06:41:00,
2013-06-21 00:46:00,45.1,35.6,24.86,West,274,0.0,0.0,69,0.00,,---,0.00,VWS V14.01,2013-06-21 06:46:00,
2013-06-21 00:51:00,45.1,35.6,24.86,West,274,0.0,0.0,69,0.00,,---,0.00,VWS V14.01,2013-06-21 06:51:00,
2013-06-21 00:56:00,45.0,35.8,24.83,West,274,0.0,0.0,70,0.00,,---,0.00,VWS V14.01,2013-06-21 06:56:00,
2013-06-21 01:01:00,44.8,35.6,24.83,West,275,0.0,0.0,70,0.00,,---,0.00,VWS V14.01,2013-06-21 07:01:00,
2013-06-21 01:06:00,44.6,35.1,24.83,West,274,0.0,0.0,69,0.00,,---,0.00,VWS V14.01,2013-06-21 07:06:00,
2013-06-21 01:11:00,44.6,35.1,24.83,West,274,0.0,0.0,69,0.00,,---,0.00,VWS V14.01,2013-06-21 07:11:00,
2013-06-21 01:16:00,44.6,35.1,24.83,West,274,0.0,0.0,69,0.00,,---,0.00,VWS V14.01,2013-06-21 07:16:00,
2013-06-21 01:21:00,44.6,35.1,24.83,West,274,0.0,0.0,69,0.00,,---,0.00,VWS V14.01,2013-06-21 07:21:00,
2013-06-21 01:26:00,44.6,35.1,24.83,West,274,0.0,0.0,69,0.00,,---,0.00,VWS V14.01,2013-06-21 07:26:00,
2013-06-21 01:31:00,44.6,35.1,24.83,West,274,0.0,0.0,69,0.00,,---,0.00,VWS V14.01,2013-06-21 07:31:00,
2013-06-21 01:36:00,44.4,35.3,24.83,West,274,0.0,0.0,70,0.00,,---,0.00,VWS V14.01,2013-06-21 07:36:00,
2013-06-21 01:41:00,44.2,35.5,24.83,West,274,0.0,0.0,71,0.00,,---,0.00,VWS V14.01,2013-06-21 07:41:00,
2013-06-21 01:46:00,44.2,35.5,24.83,West,273,2.7,4.0,71,0.00,,---,0.00,VWS V14.01,2013-06-21 07:46:00,
2013-06-21 01:51:00,44.1,35.3,24.83,West,273,0.0,0.0,71,0.00,,---,0.00,VWS V14.01,2013-06-21 07:51:00,
2013-06-21 01:56:00,43.9,35.1,24.83,NW,310,0.0,0.0,71,0.00,,---,0.00,VWS V14.01,2013-06-21 07:56:00,
2013-06-21 02:01:00,43.7,35.3,24.83,WSW,250,2.7,4.0,72,0.00,,---,0.00,VWS V14.01,2013-06-21 08:01:00,
2013-06-21 02:06:00,43.7,35.3,24.83,WNW,289,2.7,4.0,72,0.00,,---,0.00,VWS V14.01,2013-06-21 08:06:00,
2013-06-21 02:11:00,43.7,35.6,24.81,WNW,286,3.1,4.0,73,0.00,,---,0.00,VWS V14.01,2013-06-21 08:11:00,
2013-06-21 02:16:00,43.7,35.6,24.81,WNW,294,0.0,0.0,73,0.00,,---,0.00,VWS V14.01,2013-06-21 08:16:00,
2013-06-21 02:21:00,43.5,35.1,24.81,West,274,2.7,4.0,72,0.00,,---,0.00,VWS V14.01,2013-06-21 08:21:00,
2013-06-21 02:26:00,43.3,34.9,24.83,WSW,248,0.0,0.0,72,0.00,,---,0.00,VWS V14.01,2013-06-21 08:26:00,
2013-06-21 02:31:00,43.2,34.8,24.83,WSW,248,0.0,0.0,72,0.00,,---,0.00,VWS V14.01,2013-06-21 08:31:00,
2013-06-21 02:36:00,42.8,34.4,24.83,WSW,248,0.0,0.0,72,0.00,,---,0.00,VWS V14.01,2013-06-21 08:36:00,
2013-06-21 02:41:00,42.6,34.6,24.81,WSW,248,0.0,0.0,73,0.00,,---,0.00,VWS V14.01,2013-06-21 08:41:00,
2013-06-21 02:46:00,42.4,34.8,24.81,WSW,248,4.0,4.0,74,0.00,,---,0.00,VWS V14.01,2013-06-21 08:46:00,
2013-06-21 02:51:00,42.3,34.6,24.81,WSW,248,2.7,3.1,74,0.00,,---,0.00,VWS V14.01,2013-06-21 08:51:00,
2013-06-21 02:56:00,41.9,34.2,24.83,SW,235,3.6,4.0,74,0.00,,---,0.00,VWS V14.01,2013-06-21 08:56:00,
2013-06-21 03:01:00,41.7,34.4,24.83,WSW,240,2.7,3.1,75,0.00,,---,0.00,VWS V14.01,2013-06-21 09:01:00,
2013-06-21 03:06:00,41.7,34.4,24.83,SW,233,4.0,6.3,75,0.00,,---,0.00,VWS V14.01,2013-06-21 09:06:00,
2013-06-21 03:11:00,41.4,34.0,24.83,West,268,3.1,4.0,75,0.00,,---,0.00,VWS V14.01,2013-06-21 09:11:00,
2013-06-21 03:16:00,41.2,33.9,24.83,West,276,3.6,3.6,75,0.00,,---,0.00,VWS V14.01,2013-06-21 09:16:00,
2013-06-21 03:21:00,41.2,34.2,24.83,West,260,3.6,4.0,76,0.00,,---,0.00,VWS V14.01,2013-06-21 09:21:00,
2013-06-21 03:26:00,40.8,34.2,24.81,WSW,246,5.8,5.8,77,0.00,,---,0.00,VWS V14.01,2013-06-21 09:26:00,
2013-06-21 03:31:00,40.8,34.2,24.81,SSW,211,8.1,8.1,77,0.00,,---,0.00,VWS V14.01,2013-06-21 09:31:00,
2013-06-21 03:36:00,40.6,34.0,24.81,West,262,3.1,4.0,77,0.00,,---,0.00,VWS V14.01,2013-06-21 09:36:00,
2013-06-21 03:41:00,40.6,34.0,24.83,SW,232,4.9,4.9,77,0.00,,---,0.00,VWS V14.01,2013-06-21 09:41:00,
2013-06-21 03:46:00,40.3,33.7,24.83,West,268,4.0,4.0,77,0.00,,---,0.00,VWS V14.01,2013-06-21 09:46:00,
2013-06-21 03:51:00,40.1,33.5,24.83,WSW,240,2.7,5.4,77,0.00,,---,0.00,VWS V14.01,2013-06-21 09:51:00,
2013-06-21 03:56:00,39.9,33.3,24.81,West,262,4.0,5.4,77,0.00,,---,0.00,VWS V14.01,2013-06-21 09:56:00,
2013-06-21 04:01:00,39.9,33.6,24.81,West,263,3.6,4.0,78,0.00,,---,0.00,VWS V14.01,2013-06-21 10:01:00,
2013-06-21 04:06:00,39.6,33.6,24.81,WSW,250,3.6,4.0,79,0.00,,---,0.00,VWS V14.01,2013-06-21 10:06:00,
2013-06-21 04:11:00,39.2,33.2,24.83,WSW,255,3.6,5.4,79,0.00,,---,0.00,VWS V14.01,2013-06-21 10:11:00,
2013-06-21 04:16:00,39.0,33.1,24.83,SW,230,3.6,4.0,79,0.00,,---,0.00,VWS V14.01,2013-06-21 10:16:00,
2013-06-21 04:21:00,38.8,33.2,24.83,WNW,288,4.0,4.0,80,0.00,,---,0.00,VWS V14.01,2013-06-21 10:21:00,
2013-06-21 04:26:00,38.8,33.2,24.81,West,271,2.7,3.6,80,0.00,,---,0.00,VWS V14.01,2013-06-21 10:26:00,
2013-06-21 04:30:00,38.7,33.3,24.81,WSW,246,8.1,8.1,81,0.00,,---,0.00,VWS V14.01,2013-06-21 10:30:00,
2013-06-21 04:35:00,38.7,33.3,24.81,SW,233,0.0,0.0,81,0.00,,---,0.00,VWS V14.01,2013-06-21 10:35:00,
2013-06-21 04:40:00,38.5,33.2,24.83,West,266,4.0,4.0,81,0.00,,---,0.00,VWS V14.01,2013-06-21 10:40:00,
2013-06-21 04:45:00,38.3,33.0,24.83,SW,236,3.6,4.0,81,0.00,,---,0.00,VWS V14.01,2013-06-21 10:45:00,
2013-06-21 04:50:00,38.3,33.3,24.83,NW,308,3.6,5.8,82,0.00,,---,0.00,VWS V14.01,2013-06-21 10:50:00,
2013-06-21 04:55:00,38.3,33.3,24.83,WSW,254,5.4,5.8,82,0.00,,---,0.00,VWS V14.01,2013-06-21 10:55:00,
2013-06-21 05:00:00,38.1,32.8,24.83,West,266,3.6,5.8,81,0.00,,---,0.00,VWS V14.01,2013-06-21 11:00:00,
2013-06-21 05:05:00,37.8,32.5,24.83,WSW,254,5.8,5.8,81,0.00,,---,0.00,VWS V14.01,2013-06-21 11:05:00,
2013-06-21 05:10:00,37.4,32.1,24.83,WNW,284,6.3,7.6,81,0.00,,---,0.00,VWS V14.01,2013-06-21 11:10:00,
2013-06-21 05:15:00,37.4,32.4,24.83,West,268,4.9,5.4,82,0.00,,---,0.00,VWS V14.01,2013-06-21 11:15:00,
2013-06-21 05:20:00,37.4,32.7,24.83,WSW,258,4.9,4.9,83,0.00,,---,0.00,VWS V14.01,2013-06-21 11:20:00,
2013-06-21 05:25:00,37.4,32.7,24.83,West,261,5.4,6.3,83,0.00,,---,0.00,VWS V14.01,2013-06-21 11:25:00,
2013-06-21 05:30:00,37.4,32.7,24.83,SW,235,4.5,5.8,83,0.00,,---,0.00,VWS V14.01,2013-06-21 11:30:00,
2013-06-21 05:35:00,37.2,32.5,24.83,West,276,4.9,6.7,83,0.00,,---,0.00,VWS V14.01,2013-06-21 11:35:00,
2013-06-21 05:40:00,37.0,32.4,24.81,WNW,285,4.9,5.8,83,0.00,,---,0.00,VWS V14.01,2013-06-21 11:40:00,
2013-06-21 05:45:00,36.9,32.2,24.81,West,260,5.8,5.8,83,0.00,,---,0.00,VWS V14.01,2013-06-21 11:45:00,
2013-06-21 05:50:00,36.5,31.8,24.81,WSW,240,5.4,5.8,83,0.00,,---,0.00,VWS V14.01,2013-06-21 11:50:00,
2013-06-21 05:55:00,36.5,31.8,24.83,West,281,5.4,7.6,83,0.00,,---,0.00,VWS V14.01,2013-06-21 11:55:00,
2013-06-21 06:00:00,36.5,32.1,24.83,WSW,257,4.9,5.8,84,0.00,,---,0.00,VWS V14.01,2013-06-21 12:00:00,
2013-06-21 06:05:00,36.3,32.0,24.83,WSW,249,5.8,6.7,84,0.00,,---,0.00,VWS V14.01,2013-06-21 12:05:00,
2013-06-21 06:10:00,36.3,32.0,24.83,West,269,5.4,5.8,84,0.00,,---,0.00,VWS V14.01,2013-06-21 12:10:00,
2013-06-21 06:15:00,36.3,32.0,24.83,West,259,5.8,5.8,84,0.00,,---,0.00,VWS V14.01,2013-06-21 12:15:00,
2013-06-21 06:20:00,36.3,32.2,24.83,West,265,4.9,5.4,85,0.00,,---,0.00,VWS V14.01,2013-06-21 12:20:00,
2013-06-21 06:25:00,36.5,32.4,24.83,West,271,8.1,8.1,85,0.00,,---,0.00,VWS V14.01,2013-06-21 12:25:00,
2013-06-21 06:30:00,36.5,32.4,24.83,WSW,240,5.8,5.8,85,0.00,,---,0.00,VWS V14.01,2013-06-21 12:30:00,
2013-06-21 06:35:00,36.7,32.6,24.83,West,271,3.6,7.6,85,0.00,,---,0.00,VWS V14.01,2013-06-21 12:35:00,
2013-06-21 06:40:00,36.7,32.6,24.83,WSW,257,4.0,5.8,85,0.00,,---,0.00,VWS V14.01,2013-06-21 12:40:00,
2013-06-21 06:45:00,36.7,32.6,24.83,WSW,239,5.4,6.3,85,0.00,,---,0.00,VWS V14.01,2013-06-21 12:45:00,
2013-06-21 06:50:00,36.9,32.5,24.83,West,261,5.4,6.3,84,0.00,,---,0.00,VWS V14.01,2013-06-21 12:50:00,
2013-06-21 06:55:00,36.9,32.5,24.83,West,267,3.6,5.4,84,0.00,,---,0.00,VWS V14.01,2013-06-21 12:55:00,
2013-06-21 07:00:00,37.0,32.7,24.83,West,279,5.4,5.8,84,0.00,,---,0.00,VWS V14.01,2013-06-21 13:00:00,
2013-06-21 07:05:00,37.0,32.7,24.83,West,268,4.9,6.3,84,0.00,,---,0.00,VWS V14.01,2013-06-21 13:05:00,
2013-06-21 07:10:00,37.2,32.5,24.83,WSW,256,6.3,6.3,83,0.00,,---,0.00,VWS V14.01,2013-06-21 13:10:00,
2013-06-21 07:15:00,37.4,32.7,24.83,West,265,4.9,5.8,83,0.00,,---,0.00,VWS V14.01,2013-06-21 13:15:00,
2013-06-21 07:20:00,37.9,33.2,24.83,WSW,244,4.5,4.5,83,0.00,,---,0.00,VWS V14.01,2013-06-21 13:20:00,
2013-06-21 07:25:00,38.5,33.8,24.83,WSW,253,5.4,5.4,83,0.00,,---,0.00,VWS V14.01,2013-06-21 13:25:00,
2013-06-21 07:30:00,39.0,34.3,24.83,WSW,245,3.1,4.0,83,0.00,,---,0.00,VWS V14.01,2013-06-21 13:30:00,
2013-06-21 07:35:00,39.4,34.3,24.83,West,272,4.9,5.4,82,0.00,,---,0.00,VWS V14.01,2013-06-21 13:35:00,
2013-06-21 07:40:00,39.7,34.4,24.83,WSW,247,6.3,7.6,81,0.00,,---,0.00,VWS V14.01,2013-06-21 13:40:00,
2013-06-21 07:45:00,39.9,34.0,24.83,WSW,248,4.0,4.0,79,0.00,,---,0.00,VWS V14.01,2013-06-21 13:45:00,
2013-06-21 07:50:00,40.5,34.2,24.83,West,269,5.8,5.8,78,0.00,,---,0.00,VWS V14.01,2013-06-21 13:50:00,
2013-06-21 07:55:00,41.0,34.7,24.83,WNW,283,2.7,3.1,78,0.00,,---,0.00,VWS V14.01,2013-06-21 13:55:00,
2013-06-21 08:00:00,41.9,35.2,24.83,West,273,4.0,4.0,77,0.00,,---,0.00,VWS V14.01,2013-06-21 14:00:00,
2013-06-21 08:06:00,42.3,35.2,24.83,WNW,289,4.0,4.0,76,0.00,,---,0.00,VWS V14.01,2013-06-21 14:06:00,
2013-06-21 08:11:00,42.8,35.1,24.83,WSW,257,4.0,6.3,74,0.00,,---,0.00,VWS V14.01,2013-06-21 14:11:00,
2013-06-21 08:16:00,43.7,36.0,24.83,WSW,252,0.0,0.0,74,0.00,,---,0.00,VWS V14.01,2013-06-21 14:16:00,
2013-06-21 08:21:00,44.1,35.6,24.83,NW,314,2.7,3.1,72,0.00,,---,0.00,VWS V14.01,2013-06-21 14:21:00,
2013-06-21 08:26:00,44.4,35.6,24.83,NW,314,0.0,0.0,71,0.00,,---,0.00,VWS V14.01,2013-06-21 14:26:00,
2013-06-21 08:31:00,45.1,36.0,24.83,NNE,30,0.0,0.0,70,0.00,,---,0.00,VWS V14.01,2013-06-21 14:31:00,
2013-06-21 08:36:00,46.0,36.1,24.83,NE,55,3.6,4.0,68,0.00,,---,0.00,VWS V14.01,2013-06-21 14:36:00,
2013-06-21 08:41:00,46.9,36.6,24.83,NE,43,3.6,3.6,67,0.00,,---,0.00,VWS V14.01,2013-06-21 14:41:00,
2013-06-21 08:46:00,47.5,36.7,24.83,NE,52,5.8,6.3,66,0.00,,---,0.00,VWS V14.01,2013-06-21 14:46:00,
2013-06-21 08:51:00,48.2,37.0,24.83,ENE,62,2.7,3.6,65,0.00,,---,0.00,VWS V14.01,2013-06-21 14:51:00,
2013-06-21 08:56:00,48.7,37.1,24.83,ENE,57,6.3,6.3,64,0.00,,---,0.00,VWS V14.01,2013-06-21 14:56:00,
2013-06-21 09:01:00,49.1,36.7,24.83,NE,43,4.0,7.6,62,0.00,,---,0.00,VWS V14.01,2013-06-21 15:01:00,
2013-06-21 09:06:00,49.3,35.6,24.83,East,96,2.7,4.9,59,0.00,,---,0.00,VWS V14.01,2013-06-21 15:06:00,
2013-06-21 09:11:00,49.5,35.7,24.83,ENE,68,4.0,4.0,59,0.00,,---,0.00,VWS V14.01,2013-06-21 15:11:00,
2013-06-21 09:16:00,49.6,35.9,24.83,NE,45,5.4,5.4,59,0.00,,---,0.00,VWS V14.01,2013-06-21 15:16:00,
2013-06-21 09:21:00,50.0,35.8,24.83,ENE,65,2.7,3.1,58,0.00,,---,0.00,VWS V14.01,2013-06-21 15:21:00,
2013-06-21 09:26:00,50.2,34.2,24.83,NE,38,5.4,5.4,54,0.00,,---,0.00,VWS V14.01,2013-06-21 15:26:00,
2013-06-21 09:31:00,50.2,35.1,24.83,ENE,57,3.1,3.1,56,0.00,,---,0.00,VWS V14.01,2013-06-21 15:31:00,
2013-06-21 09:36:00,50.5,35.4,24.83,NNE,18,3.6,3.6,56,0.00,,---,0.00,VWS V14.01,2013-06-21 15:36:00,
2013-06-21 09:41:00,50.5,34.5,24.83,NE,51,5.4,5.4,54,0.00,,---,0.00,VWS V14.01,2013-06-21 15:41:00,
2013-06-21 09:46:00,50.7,34.2,24.83,NE,43,3.1,3.6,53,0.00,,---,0.00,VWS V14.01,2013-06-21 15:46:00,
2013-06-21 09:51:00,51.4,35.4,24.83,NNE,22,4.9,5.4,54,0.00,,---,0.00,VWS V14.01,2013-06-21 15:51:00,
2013-06-21 09:56:00,51.6,35.1,24.83,NE,47,4.9,4.9,53,0.00,,---,0.00,VWS V14.01,2013-06-21 15:56:00,
2013-06-21 10:01:00,52.2,34.6,24.83,NE,42,5.4,6.3,51,0.00,,---,0.00,VWS V14.01,2013-06-21 16:01:00,
2013-06-21 10:06:00,52.5,34.4,24.83,NE,52,3.1,4.9,50,0.00,,---,0.00,VWS V14.01,2013-06-21 16:06:00,
2013-06-21 10:11:00,53.1,34.4,24.83,ENE,67,4.9,5.4,49,0.00,,---,0.00,VWS V14.01,2013-06-21 16:11:00,
2013-06-21 10:16:00,53.4,34.8,24.83,ESE,120,5.8,5.8,49,0.00,,---,0.00,VWS V14.01,2013-06-21 16:16:00,
2013-06-21 10:21:00,52.9,34.3,24.83,NNE,23,5.8,6.3,49,0.00,,---,0.00,VWS V14.01,2013-06-21 16:21:00,
2013-06-21 10:26:00,53.4,34.8,24.83,ENE,57,3.1,3.1,49,0.00,,---,0.00,VWS V14.01,2013-06-21 16:26:00,
2013-06-21 10:31:00,53.6,34.9,24.83,NE,52,3.6,5.4,49,0.00,,---,0.00,VWS V14.01,2013-06-21 16:31:00,
2013-06-21 10:36:00,54.3,35.6,24.83,ENE,77,5.4,5.8,49,0.00,,---,0.00,VWS V14.01,2013-06-21 16:36:00,
2013-06-21 10:42:00,54.9,35.6,24.81,NE,41,3.1,3.6,48,0.00,,---,0.00,VWS V14.01,2013-06-21 16:42:00,
2013-06-21 10:47:00,55.0,34.7,24.81,NE,56,3.1,3.1,46,0.00,,---,0.00,VWS V14.01,2013-06-21 16:47:00,
2013-06-21 10:52:00,55.6,35.2,24.81,NE,52,6.3,7.6,46,0.00,,---,0.00,VWS V14.01,2013-06-21 16:52:00,
2013-06-21 10:57:00,55.8,34.8,24.83,ENE,72,2.2,3.6,45,0.00,,---,0.00,VWS V14.01,2013-06-21 16:57:00,
2013-06-21 11:01:00,56.1,35.1,24.83,NE,54,7.6,7.6,45,0.00,,---,0.00,VWS V14.01,2013-06-21 17:01:00,
2013-06-21 11:07:00,56.7,35.6,24.83,ENE,59,5.4,5.4,45,0.00,,---,0.00,VWS V14.01,2013-06-21 17:07:00,
2013-06-21 11:12:00,57.2,35.5,24.83,East,101,3.6,6.3,44,0.00,,---,0.00,VWS V14.01,2013-06-21 17:12:00,
2013-06-21 11:17:00,56.1,35.6,24.83,NNE,30,6.3,6.3,46,0.00,,---,0.00,VWS V14.01,2013-06-21 17:17:00,
2013-06-21 11:22:00,56.8,34.6,24.83,NNE,29,5.8,7.6,43,0.00,,---,0.00,VWS V14.01,2013-06-21 17:22:00,
2013-06-21 11:27:00,57.4,33.9,24.83,NE,56,4.9,4.9,41,0.00,,---,0.00,VWS V14.01,2013-06-21 17:27:00,
2013-06-21 11:32:00,58.3,34.7,24.83,ENE,57,5.4,5.4,41,0.00,,---,0.00,VWS V14.01,2013-06-21 17:32:00,
2013-06-21 11:37:00,59.0,34.1,24.83,ESE,109,3.6,5.4,39,0.00,,---,0.00,VWS V14.01,2013-06-21 17:37:00,
2013-06-21 11:42:00,59.5,33.9,24.83,NE,34,3.6,3.6,38,0.00,,---,0.00,VWS V14.01,2013-06-21 17:42:00,
2013-06-21 11:45:00,59.7,33.4,24.83,SE,131,4.9,5.8,37,0.00,,---,0.00,VWS V14.01,2013-06-21 17:45:00,
2013-06-21 11:46:00,59.7,33.4,24.83,SE,131,4.9,5.8,37,0.00,,---,0.00,VWS V14.01,2013-06-21 17:46:00,
2013-06-21 11:51:00,58.5,32.3,24.83,SE,133,6.3,6.3,37,0.00,,---,0.00,VWS V14.01,2013-06-21 17:51:00,
2013-06-21 11:56:00,56.8,32.2,24.83,ENE,63,2.7,2.7,39,0.00,,---,0.00,VWS V14.01,2013-06-21 17:56:00,
2013-06-21 12:01:00,57.9,35.0,24.83,NE,43,0.0,2.7,42,0.00,,---,0.00,VWS V14.01,2013-06-21 18:01:00,
2013-06-21 12:06:00,58.6,34.4,24.83,North,357,3.1,3.1,40,0.00,,---,0.00,VWS V14.01,2013-06-21 18:06:00,
2013-06-21 12:12:00,57.9,32.5,24.81,North,353,2.2,2.2,38,0.00,,---,0.00,VWS V14.01,2013-06-21 18:12:00,
2013-06-21 12:17:00,57.7,33.0,24.81,NE,39,4.0,4.0,39,0.00,,---,0.00,VWS V14.01,2013-06-21 18:17:00,
2013-06-21 12:22:00,59.4,33.8,24.81,NW,323,2.7,2.7,38,0.00,,---,0.00,VWS V14.01,2013-06-21 18:22:00,
2013-06-21 12:23:00,59.5,33.9,24.81,ENE,62,3.1,5.4,38,0.00,,---,0.00,VWS V14.01,2013-06-21 18:23:00,
2013-06-21 12:28:00,59.7,33.4,24.81,ENE,64,6.3,8.3,37,0.00,,---,0.00,VWS V14.01,2013-06-21 18:28:00,
2013-06-21 12:33:00,60.8,34.4,24.81,ENE,73,2.2,3.6,37,0.00,,---,0.00,VWS V14.01,2013-06-21 18:33:00,
2013-06-21 12:38:00,59.4,32.4,24.81,SE,143,3.6,4.9,36,0.00,,---,0.00,VWS V14.01,2013-06-21 18:38:00,
2013-06-21 12:43:00,58.1,32.0,24.81,SSE,147,2.7,4.0,37,0.00,,---,0.00,VWS V14.01,2013-06-21 18:43:00,
2013-06-21 12:45:00,58.5,32.3,24.81,SE,143,2.7,3.6,37,0.00,,---,0.00,VWS V14.01,2013-06-21 18:45:00,
2013-06-21 12:46:00,58.6,32.5,24.81,SSW,194,0.0,3.6,37,0.00,,---,0.00,VWS V14.01,2013-06-21 18:46:00,
2013-06-21 12:51:00,59.5,33.3,24.81,South,190,0.0,0.0,37,0.00,,---,0.00,VWS V14.01,2013-06-21 18:51:00,
2013-06-21 12:56:00,60.3,33.2,24.81,ENE,60,0.0,5.8,36,0.00,,---,0.00,VWS V14.01,2013-06-21 18:56:00,
2013-06-21 13:01:00,60.6,34.2,24.81,NW,316,6.7,6.7,37,0.00,,---,0.00,VWS V14.01,2013-06-21 19:01:00,
2013-06-21 13:06:00,57.7,31.7,24.81,NW,323,6.3,6.3,37,0.00,,---,0.00,VWS V14.01,2013-06-21 19:06:00,
2013-06-21 13:11:00,55.9,32.6,24.81,NW,309,7.2,7.2,41,0.00,,---,0.00,VWS V14.01,2013-06-21 19:11:00,
2013-06-21 13:16:00,54.9,33.9,24.81,NW,320,5.4,5.4,45,0.00,,---,0.00,VWS V14.01,2013-06-21 19:16:00,
2013-06-21 13:20:00,54.5,34.7,24.81,NW,314,5.8,8.3,47,0.00,,---,0.00,VWS V14.01,2013-06-21 19:20:00,
2013-06-21 13:25:00,53.8,35.6,24.81,WNW,296,6.3,6.3,50,0.00,,---,0.00,VWS V14.01,2013-06-21 19:25:00,
2013-06-21 13:30:00,53.2,37.0,24.81,NW,316,3.6,5.8,54,0.00,,---,0.00,VWS V14.01,2013-06-21 19:30:00,
2013-06-21 13:35:00,53.4,34.8,24.81,NW,322,4.0,4.5,49,0.00,,---,0.00,VWS V14.01,2013-06-21 19:35:00,
2013-06-21 13:40:00,54.0,34.7,24.81,WNW,296,4.5,4.5,48,0.00,,---,0.00,VWS V14.01,2013-06-21 19:40:00,
2013-06-21 13:42:00,54.3,34.5,24.81,WNW,297,2.7,3.1,47,0.00,,---,0.00,VWS V14.01,2013-06-21 19:42:00,
2013-06-21 13:47:00,55.0,34.7,24.81,NW,317,0.0,0.0,46,0.00,,---,0.00,VWS V14.01,2013-06-21 19:47:00,
2013-06-21 13:52:00,55.6,33.5,24.81,NW,310,2.7,3.1,43,0.00,,---,0.00,VWS V14.01,2013-06-21 19:52:00,
2013-06-21 13:57:00,55.6,32.9,24.81,NW,309,4.0,4.0,42,0.00,,---,0.00,VWS V14.01,2013-06-21 19:57:00,
2013-06-21 14:02:00,55.9,33.2,24.81,WNW,303,5.4,5.4,42,0.00,,---,0.00,VWS V14.01,2013-06-21 20:02:00,
2013-06-21 14:04:00,56.1,33.4,24.81,NW,321,2.7,4.0,42,0.00,,---,0.00,VWS V14.01,2013-06-21 20:04:00,
2013-06-21 14:08:00,56.7,32.6,24.81,North,357,3.1,4.9,40,0.00,,---,0.00,VWS V14.01,2013-06-21 20:08:00,
2013-06-21 14:11:00,57.2,33.1,24.81,NW,314,3.1,5.8,40,0.00,,---,0.00,VWS V14.01,2013-06-21 20:11:00,
2013-06-21 14:14:00,57.2,33.1,24.81,West,279,4.0,4.9,40,0.00,,---,0.00,VWS V14.01,2013-06-21 20:14:00,
2013-06-21 14:19:00,57.6,31.5,24.81,ENE,73,2.7,3.6,37,0.00,,---,0.00,VWS V14.01,2013-06-21 20:19:00,
2013-06-21 14:24:00,57.9,31.8,24.81,NNW,329,5.8,6.3,37,0.00,,---,0.00,VWS V14.01,2013-06-21 20:24:00,
2013-06-21 14:29:00,58.3,32.2,24.81,SW,231,5.4,5.4,37,0.00,,---,0.00,VWS V14.01,2013-06-21 20:29:00,
2013-06-21 14:34:00,57.9,31.8,24.81,WNW,301,2.7,6.3,37,0.00,,---,0.00,VWS V14.01,2013-06-21 20:34:00,
2013-06-21 14:39:00,56.7,30.7,24.81,WSW,250,0.0,3.1,37,0.00,,---,0.00,VWS V14.01,2013-06-21 20:39:00,
2013-06-21 14:44:00,57.2,31.2,24.81,NNW,345,4.0,4.0,37,0.00,,---,0.00,VWS V14.01,2013-06-21 20:44:00,
2013-06-21 14:49:00,57.7,31.0,24.81,NW,309,7.6,7.6,36,0.00,,---,0.00,VWS V14.01,2013-06-21 20:49:00,
2013-06-21 14:54:00,57.4,30.7,24.81,West,272,3.1,3.1,36,0.00,,---,0.00,VWS V14.01,2013-06-21 20:54:00,
2013-06-21 14:59:00,57.6,30.8,24.81,NW,321,3.6,3.6,36,0.00,,---,0.00,VWS V14.01,2013-06-21 20:59:00,
2013-06-21 15:03:00,58.5,31.6,24.81,WNW,301,3.6,3.6,36,0.00,,---,0.00,VWS V14.01,2013-06-21 21:03:00,
2013-06-21 15:04:00,58.5,31.6,24.81,WNW,301,2.2,3.1,36,0.00,,---,0.00,VWS V14.01,2013-06-21 21:04:00,
2013-06-21 15:09:00,59.0,31.4,24.81,SSE,168,0.0,0.0,35,0.00,,---,0.00,VWS V14.01,2013-06-21 21:09:00,
2013-06-21 15:14:00,59.9,32.2,24.81,West,273,3.6,4.0,35,0.00,,---,0.00,VWS V14.01,2013-06-21 21:14:00,
2013-06-21 15:19:00,59.4,31.7,24.81,West,273,8.3,8.7,35,0.00,,---,0.00,VWS V14.01,2013-06-21 21:19:00,
2013-06-21 15:24:00,59.2,31.6,24.81,West,265,9.2,9.2,35,0.00,,---,0.00,VWS V14.01,2013-06-21 21:24:00,
2013-06-21 15:29:00,58.5,30.9,24.81,WSW,249,4.0,5.4,35,0.00,,---,0.00,VWS V14.01,2013-06-21 21:29:00,
2013-06-21 15:34:00,58.8,31.2,24.81,WSW,251,8.7,8.7,35,0.00,,---,0.00,VWS V14.01,2013-06-21 21:34:00,
2013-06-21 15:39:00,58.5,30.9,24.81,West,268,3.6,3.6,35,0.00,,---,0.00,VWS V14.01,2013-06-21 21:39:00,
2013-06-21 15:44:00,58.5,30.9,24.81,WSW,252,5.4,8.3,35,0.00,,---,0.00,VWS V14.01,2013-06-21 21:44:00,
2013-06-21 15:49:00,59.2,30.9,24.81,NW,318,6.3,6.3,34,0.00,,---,0.00,VWS V14.01,2013-06-21 21:49:00,
2013-06-21 15:54:00,59.7,31.3,24.81,WNW,303,8.1,8.1,34,0.00,,---,0.00,VWS V14.01,2013-06-21 21:54:00,
2013-06-21 15:59:00,59.4,30.3,24.81,WSW,244,4.0,5.4,33,0.00,,---,0.00,VWS V14.01,2013-06-21 21:59:00,
2013-06-21 16:04:00,58.8,30.5,24.81,WNW,288,0.0,0.0,34,0.00,,---,0.00,VWS V14.01,2013-06-21 22:04:00,
2013-06-21 16:09:00,58.8,30.5,24.81,SSW,211,0.0,2.7,34,0.00,,---,0.00,VWS V14.01,2013-06-21 22:09:00,
2013-06-21 16:14:00,58.8,30.5,24.81,ENE,78,0.0,0.0,34,0.00,,---,0.00,VWS V14.01,2013-06-21 22:14:00,
2013-06-21 16:19:00,58.6,30.4,24.81,SE,142,4.9,4.9,34,0.00,,---,0.00,VWS V14.01,2013-06-21 22:19:00,
2013-06-21 16:24:00,58.3,30.1,24.81,SE,143,5.4,5.4,34,0.00,,---,0.00,VWS V14.01,2013-06-21 22:24:00,
2013-06-21 16:29:00,58.3,30.8,24.81,SE,129,5.8,5.8,35,0.00,,---,0.00,VWS V14.01,2013-06-21 22:29:00,
2013-06-21 16:34:00,57.6,30.1,24.81,SE,137,10.1,10.1,35,0.00,,---,0.00,VWS V14.01,2013-06-21 22:34:00,
2013-06-21 16:39:00,54.7,34.9,24.81,ESE,112,10.5,12.8,47,0.00,,---,0.00,VWS V14.01,2013-06-21 22:39:00,
2013-06-21 16:44:00,53.8,35.6,24.81,South,175,8.3,8.3,50,0.00,,---,0.00,VWS V14.01,2013-06-21 22:44:00,
2013-06-21 16:49:00,53.1,37.3,24.81,SSE,157,8.7,8.7,55,0.00,,---,0.00,VWS V14.01,2013-06-21 22:49:00,
2013-06-21 16:54:00,53.4,36.2,24.83,SSE,157,5.8,5.8,52,0.00,,---,0.00,VWS V14.01,2013-06-21 22:54:00,
2013-06-21 16:59:00,53.6,34.4,24.83,SSE,156,4.9,8.7,48,0.00,,---,0.00,VWS V14.01,2013-06-21 22:59:00,
2013-06-21 17:04:00,54.1,33.8,24.83,South,173,7.6,7.6,46,0.00,,---,0.00,VWS V14.01,2013-06-21 23:04:00,
2013-06-21 17:09:00,54.1,33.8,24.83,South,184,8.1,8.1,46,0.00,,---,0.00,VWS V14.01,2013-06-21 23:09:00,
2013-06-21 17:14:00,54.3,34.0,24.83,WSW,257,3.1,7.6,46,0.00,,---,0.00,VWS V14.01,2013-06-21 23:14:00,
2013-06-21 17:19:00,54.3,33.5,24.83,WNW,282,7.6,8.3,45,0.00,,---,0.00,VWS V14.01,2013-06-21 23:19:00,
2013-06-21 17:24:00,54.1,33.8,24.83,WSW,247,5.4,8.3,46,0.00,,---,0.00,VWS V14.01,2013-06-21 23:24:00,
2013-06-21 17:29:00,54.3,34.0,24.83,WSW,248,8.7,10.5,46,0.00,,---,0.00,VWS V14.01,2013-06-21 23:29:00,
2013-06-21 17:34:00,54.7,34.3,24.83,WNW,288,8.7,8.7,46,0.00,,---,0.00,VWS V14.01,2013-06-21 23:34:00,
2013-06-21 17:39:00,55.0,33.5,24.83,SSW,211,6.3,8.1,44,0.00,,---,0.00,VWS V14.01,2013-06-21 23:39:00,
2013-06-21 17:44:00,55.4,33.3,24.83,NW,309,5.8,8.1,43,0.00,,---,0.00,VWS V14.01,2013-06-21 23:44:00,
2013-06-21 17:49:00,55.9,33.8,24.83,West,262,8.7,8.7,43,0.00,,---,0.00,VWS V14.01,2013-06-21 23:49:00,
2013-06-21 17:54:00,55.8,32.4,24.83,West,259,8.1,8.1,41,0.00,,---,0.00,VWS V14.01,2013-06-21 23:54:00,
2013-06-21 17:59:00,54.9,35.0,24.83,West,268,7.6,10.1,47,0.00,,---,0.00,VWS V14.01,2013-06-21 23:59:00,
2013-06-21 18:04:00,54.1,34.9,24.83,NW,311,8.3,8.3,48,0.00,,---,0.00,VWS V14.01,2013-06-22 00:04:00,
2013-06-21 18:09:00,53.6,34.4,24.83,WNW,284,5.4,6.3,48,0.00,,---,0.00,VWS V14.01,2013-06-22 00:09:00,
2013-06-21 18:14:00,53.2,34.6,24.83,NW,305,5.8,6.3,49,0.00,,---,0.00,VWS V14.01,2013-06-22 00:14:00,
2013-06-21 18:19:00,53.2,34.6,24.83,West,266,5.8,5.8,49,0.00,,---,0.00,VWS V14.01,2013-06-22 00:19:00,
2013-06-21 18:24:00,53.1,34.9,24.83,WNW,289,4.0,5.8,50,0.00,,---,0.00,VWS V14.01,2013-06-22 00:24:00,
2013-06-21 18:29:00,53.1,34.4,24.83,NNW,328,5.4,6.3,49,0.00,,---,0.00,VWS V14.01,2013-06-22 00:29:00,
2013-06-21 18:34:00,52.9,34.3,24.83,NW,314,4.0,5.4,49,0.00,,---,0.00,VWS V14.01,2013-06-22 00:34:00,
2013-06-21 18:39:00,52.9,33.7,24.83,WNW,288,3.1,4.0,48,0.00,,---,0.00,VWS V14.01,2013-06-22 00:39:00,
2013-06-21 18:44:00,52.9,34.3,24.83,NNW,329,0.0,3.6,49,0.00,,---,0.00,VWS V14.01,2013-06-22 00:44:00,
2013-06-21 18:49:00,53.1,34.4,24.83,NW,320,4.0,4.0,49,0.00,,---,0.00,VWS V14.01,2013-06-22 00:49:00,
2013-06-21 18:54:00,53.4,34.8,24.83,NE,46,2.2,3.6,49,0.00,,---,0.00,VWS V14.01,2013-06-22 00:54:00,
2013-06-21 18:59:00,53.6,36.4,24.83,NNE,29,7.6,7.6,52,0.00,,---,0.00,VWS V14.01,2013-06-22 00:59:00,
2013-06-21 19:04:00,53.6,36.4,24.83,ENE,62,3.6,5.8,52,0.00,,---,0.00,VWS V14.01,2013-06-22 01:04:00,
2013-06-21 19:09:00,53.4,36.7,24.83,NE,51,2.2,2.7,53,0.00,,---,0.00,VWS V14.01,2013-06-22 01:09:00,
2013-06-21 19:14:00,53.4,36.2,24.83,North,357,2.7,2.7,52,0.00,,---,0.00,VWS V14.01,2013-06-22 01:14:00,
2013-06-21 19:19:00,53.6,35.9,24.83,NE,36,3.6,3.6,51,0.00,,---,0.00,VWS V14.01,2013-06-22 01:19:00,
2013-06-21 19:24:00,54.3,36.1,24.83,ESE,111,2.2,2.2,50,0.00,,---,0.00,VWS V14.01,2013-06-22 01:24:00,
2013-06-21 19:29:00,55.2,36.4,24.83,North,4,0.0,2.7,49,0.00,,---,0.00,VWS V14.01,2013-06-22 01:29:00,
2013-06-21 19:34:00,55.9,36.0,24.83,NNE,32,0.0,0.0,47,0.00,,---,0.00,VWS V14.01,2013-06-22 01:34:00,
2013-06-21 19:39:00,55.6,34.6,24.83,NW,317,2.2,2.7,45,0.00,,---,0.00,VWS V14.01,2013-06-22 01:39:00,
2013-06-21 19:44:00,55.6,35.2,24.83,NW,312,0.0,0.0,46,0.00,,---,0.00,VWS V14.01,2013-06-22 01:44:00,
2013-06-21 19:49:00,55.6,34.6,24.83,NW,312,0.0,0.0,45,0.00,,---,0.00,VWS V14.01,2013-06-22 01:49:00,
2013-06-21 19:54:00,55.6,34.6,24.83,East,91,3.6,4.0,45,0.00,,---,0.00,VWS V14.01,2013-06-22 01:54:00,
2013-06-21 19:59:00,54.0,34.2,24.83,SE,125,8.1,8.1,47,0.00,,---,0.00,VWS V14.01,2013-06-22 01:59:00,
2013-06-21 20:04:00,53.2,35.1,24.83,ENE,72,3.1,5.8,50,0.00,,---,0.00,VWS V14.01,2013-06-22 02:04:00,
2013-06-21 20:09:00,52.5,34.9,24.83,SE,131,4.5,4.5,51,0.00,,---,0.00,VWS V14.01,2013-06-22 02:09:00,
2013-06-21 20:14:00,52.5,35.9,24.83,ESE,108,3.6,3.6,53,0.00,,---,0.00,VWS V14.01,2013-06-22 02:14:00,
2013-06-21 20:19:00,52.7,36.1,24.83,SE,134,2.7,3.6,53,0.00,,---,0.00,VWS V14.01,2013-06-22 02:19:00,
2013-06-21 20:24:00,52.5,34.9,24.83,SSE,150,3.1,3.6,51,0.00,,---,0.00,VWS V14.01,2013-06-22 02:24:00,
2013-06-21 20:29:00,52.5,34.4,24.83,SSE,151,3.6,4.0,50,0.00,,---,0.00,VWS V14.01,2013-06-22 02:29:00,
2013-06-21 20:34:00,52.2,36.0,24.83,SSE,156,5.4,6.3,54,0.00,,---,0.00,VWS V14.01,2013-06-22 02:34:00,
2013-06-21 20:39:00,52.0,35.4,24.83,SSE,151,0.0,0.0,53,0.00,,---,0.00,VWS V14.01,2013-06-22 02:39:00,
2013-06-21 20:44:00,52.0,35.4,24.83,SSE,151,0.0,0.0,53,0.00,,---,0.00,VWS V14.01,2013-06-22 02:44:00,
2013-06-21 20:49:00,52.2,35.6,24.83,SSE,151,0.0,0.0,53,0.00,,---,0.00,VWS V14.01,2013-06-22 02:49:00,
2013-06-21 20:54:00,52.3,35.2,24.83,West,265,0.0,0.0,52,0.00,,---,0.00,VWS V14.01,2013-06-22 02:54:00,
2013-06-21 20:59:00,52.3,34.8,24.83,West,265,0.0,0.0,51,0.00,,---,0.00,VWS V14.01,2013-06-22 02:59:00,
2013-06-21 21:04:00,52.3,34.8,24.83,West,265,0.0,0.0,51,0.00,,---,0.00,VWS V14.01,2013-06-22 03:04:00,
2013-06-21 21:09:00,52.3,34.3,24.83,West,265,0.0,0.0,50,0.00,,---,0.00,VWS V14.01,2013-06-22 03:09:00,
2013-06-21 21:14:00,52.3,34.8,24.83,West,265,0.0,0.0,51,0.00,,---,0.00,VWS V14.01,2013-06-22 03:14:00,
2013-06-21 21:19:00,52.2,34.6,24.83,West,265,0.0,0.0,51,0.00,,---,0.00,VWS V14.01,2013-06-22 03:19:00,
2013-06-21 21:24:00,52.2,35.1,24.83,West,261,0.0,0.0,52,0.00,,---,0.00,VWS V14.01,2013-06-22 03:24:00,
2013-06-21 21:29:00,52.0,35.4,24.83,SW,222,3.1,4.0,53,0.00,,---,0.00,VWS V14.01,2013-06-22 03:29:00,
2013-06-21 21:34:00,51.6,35.5,24.83,SW,222,3.6,3.6,54,0.00,,---,0.00,VWS V14.01,2013-06-22 03:34:00,
2013-06-21 21:39:00,51.6,35.5,24.81,SW,222,0.0,0.0,54,0.00,,---,0.00,VWS V14.01,2013-06-22 03:39:00,
2013-06-21 21:44:00,51.4,35.8,24.81,SW,222,0.0,0.0,55,0.00,,---,0.00,VWS V14.01,2013-06-22 03:44:00,
2013-06-21 21:49:00,51.3,35.7,24.81,SW,222,0.0,0.0,55,0.00,,---,0.00,VWS V14.01,2013-06-22 03:49:00,
2013-06-21 21:54:00,51.1,35.5,24.83,SW,222,0.0,0.0,55,0.00,,---,0.00,VWS V14.01,2013-06-22 03:54:00,
2013-06-21 21:59:00,50.9,35.8,24.83,SW,222,0.0,0.0,56,0.00,,---,0.00,VWS V14.01,2013-06-22 03:59:00,
2013-06-21 22:01:00,50.7,35.6,24.83,SW,222,0.0,0.0,56,0.00,,---,0.00,VWS V14.01,2013-06-22 04:01:00,
2013-06-21 22:06:00,50.5,35.4,24.83,NW,312,2.7,2.7,56,0.00,,---,0.00,VWS V14.01,2013-06-22 04:06:00,
2013-06-21 22:11:00,50.2,35.5,24.83,West,264,3.1,3.1,57,0.00,,---,0.00,VWS V14.01,2013-06-22 04:11:00,
2013-06-21 22:16:00,50.0,35.8,24.83,WSW,244,3.1,3.6,58,0.00,,---,0.00,VWS V14.01,2013-06-22 04:16:00,
2013-06-21 22:21:00,49.8,36.5,24.83,WSW,242,3.1,3.1,60,0.00,,---,0.00,VWS V14.01,2013-06-22 04:21:00,
2013-06-21 22:26:00,49.5,36.2,24.83,WSW,258,3.1,3.1,60,0.00,,---,0.00,VWS V14.01,2013-06-22 04:26:00,
2013-06-21 22:31:00,49.1,36.7,24.83,West,271,3.1,4.0,62,0.00,,---,0.00,VWS V14.01,2013-06-22 04:31:00,
2013-06-21 22:36:00,48.9,36.9,24.83,West,278,3.1,4.0,63,0.00,,---,0.00,VWS V14.01,2013-06-22 04:36:00,
2013-06-21 22:41:00,48.7,37.1,24.83,WSW,256,4.0,4.9,64,0.00,,---,0.00,VWS V14.01,2013-06-22 04:41:00,
2013-06-21 22:46:00,48.7,37.1,24.83,WSW,254,2.7,4.0,64,0.00,,---,0.00,VWS V14.01,2013-06-22 04:46:00,
2013-06-21 22:51:00,48.7,36.7,24.83,WSW,248,2.7,3.1,63,0.00,,---,0.00,VWS V14.01,2013-06-22 04:51:00,
2013-06-21 22:56:00,48.6,35.7,24.83,WSW,243,4.9,5.4,61,0.00,,---,0.00,VWS V14.01,2013-06-22 04:56:00,
2013-06-21 23:01:00,48.4,36.0,24.83,WSW,250,5.8,5.8,62,0.00,,---,0.00,VWS V14.01,2013-06-22 05:01:00,
2013-06-21 23:06:00,48.4,36.0,24.83,WSW,254,5.4,5.4,62,0.00,,---,0.00,VWS V14.01,2013-06-22 05:06:00,
2013-06-21 23:11:00,48.4,36.0,24.83,SW,226,4.0,5.8,62,0.00,,---,0.00,VWS V14.01,2013-06-22 05:11:00,
2013-06-21 23:16:00,48.4,36.0,24.83,West,259,5.8,5.8,62,0.00,,---,0.00,VWS V14.01,2013-06-22 05:16:00,
2013-06-21 23:21:00,48.2,37.0,24.83,West,276,6.3,6.7,65,0.00,,---,0.00,VWS V14.01,2013-06-22 05:21:00,
2013-06-21 23:26:00,48.0,37.6,24.83,West,269,5.8,5.8,67,0.00,,---,0.00,VWS V14.01,2013-06-22 05:26:00,
2013-06-21 23:31:00,48.0,36.8,24.83,West,277,4.0,5.4,65,0.00,,---,0.00,VWS V14.01,2013-06-22 05:31:00,
2013-06-21 23:36:00,48.0,37.2,24.83,WSW,258,4.0,4.9,66,0.00,,---,0.00,VWS V14.01,2013-06-22 05:36:00,
2013-06-21 23:41:00,47.8,37.0,24.83,WSW,251,5.8,5.8,66,0.00,,---,0.00,VWS V14.01,2013-06-22 05:41:00,
2013-06-21 23:46:00,47.8,37.0,24.83,SW,221,3.6,3.6,66,0.00,,---,0.00,VWS V14.01,2013-06-22 05:46:00,
2013-06-21 23:51:00,47.8,37.0,24.83,SSW,196,4.0,6.3,66,0.00,,---,0.00,VWS V14.01,2013-06-22 05:51:00,
2013-06-21 23:56:00,47.8,37.0,24.83,WSW,252,3.1,6.3,66,0.00,,---,0.00,VWS V14.01,2013-06-22 05:56:00,